星链-5416 (STARLINK-5416 )

导读 | 豆包AI

STARLINK-5416是美国太空探索技术公司星链互联网卫星星座的一员,于2022年12月28日发射入轨,属于星链卫星的第二阶段组网卫星。它运行在近地轨道,旨在为全球尤其是偏远地区提供高速低延迟的宽带互联网服务,延续了星链星座批量部署、持续扩展全球覆盖的组网节奏。

基本信息
目录编号:
54855
目录名称:
STARLINK-5416
国际标识:
2022-177AM
轨道中心:
EARTH
卫星名称:
星链-5416
卫星全名:
星链-5416 (STARLINK-5416 )
卫星状态:
在轨 (已飞行1219 天)
发射日期:
2022-12-28 UTC
国别 :
美国 (US)
星等 :
--
轨道信息
数据来源 国际轨道数据
星历时间: 2026-04-30T13:07:50+0800
8小时前
查看轨道信息
半长轴: 6861.166km
偏心率: 0.0001559
轨道倾角: 43.000°
近地点辐角 282.167°
升交点赤经 190.332°
平近点角 77.901°
近地点: 481.959km
远地点: 484.099km
周期: 94.266分钟
每日圈数: 15.275868
详细信息
固有亮度:
5
最大亮度:
2.5
卫星平台:
Starlink v1.5
覆盖范围:
全球
运营商:
太空探索技术公司
运营商所在国:
美国
制造商(研发单位):
太空探索技术公司
制造商所在国:
美国
使用方式:
暂无
卫星简介
星链(Starlink)计划是由太空探索技术公司(SpaceX)提出的一个巨型低轨卫星互联网星座项目,计划在2019年至2024年间在太空搭建由约1.2万颗卫星组成的“星链”网络,其中1584颗将部署在地球上空550千米处的近地轨道,并从2020年开始工作。该卫星仍在工作。
2D轨道图
3D轨道图
轨道高度分析图
轨道倾角分析图
轨道综合分析图
查看轨道综合分析图